Weather in Utyanka

Russia / Novosibirsk Oblast     54°42′43″N   79°47′05″E
temp.,
°C
wind,
m/s
gust,
m/s
humid.,
%
clouds,
%
prec.,
mm/h
press.,
hPa
HPBL,
m
27 february, sat
sat2701:00−26sw5996100 0.1 1035320
04:00−27sw4897100 0.0 1035254
07:00−28sw4797100 0.1 1036235
10:00−28sw4897100 0.1 1036260
13:00−26sw4596100 0.1 1037318
16:00−24sw3594100 0.0 1037330
19:00−28ssw349680 0.0 103732
22:00−30ssw34970 0.0 103734
28 february, sun
sun2801:00−30s34980 0.0 103735
04:00−30s349651 0.0 103636
07:00−30sse349758 0.0 103546
10:00−27se499572 0.0 1033196
13:00−21se589086 0.0 1030283
16:00−18se6989100 0.0 1027398
19:00−14se51095100 0.3 1023507
22:00−11ese51094100 0.5 1019432
1 march, mon
mon101:00−8se61195100 1.3 1015436
04:00−7se61195100 1.3 1010372
07:00−4ese5997100 3.4 1006384
10:000sw51398100 3.0 1005546
13:000wsw71298100 6.3 1005693
16:00−2nnw3497100 1.8 1007251
19:00−6n3596100 2.6 1009159
22:00−9n3596100 0.6 1011181
2 march, tue
tue201:00−13n339694 0.7 101460
04:00−16n129895 0.1 101620
07:00−18w0010098 0.1 101820
10:00−16sw129799 0.1 101841
13:00−13sw239198 0.1 1018311
16:00−11sw1288100 0.1 1017354
19:00−15ene0097100 0.1 101620
22:00−15ese2296100 0.0 101620
3 march, wed
wed301:00−14e1296100 0.1 101424
04:00−14ne1296100 0.4 101323
07:00−15ne119799 0.7 101420
10:00−13ne0195100 0.4 101475
13:00−12w1190100 0.7 1015306
16:00−10w2390100 0.3 1016427
19:00−12w239697 0.5 101842
22:00−15w239786 0.1 102131